Von / Nach
Hinflug - Rückflug
Erwachsene / Kinder
Promocode
Nächste Ankünfte Flughafen St.Gallen-Altenrhein

ZeitErw.vonFlugInfo
20:5520:55WienPE107
planmässig
Nächste Abflüge Flughafen St.Gallen-Altenrhein

Zur Zeit stehen leider keine aktuellen Fluginformationen zur Verfügung.

Flugplan

Bitte wählen Sie Ihren gewünschten Abflug- und Zielflughafen aus.


Live aus Altenrhein
LIVE
LSZR 121950Z 10003KT 9999 FEW030 M02/M04 Q1019 NOSIG RMK R
Zeitraffer heute
2018-12-12 00:14:03
LSZR 112250Z AUTO VRB01KT CAVOK M01/M02 Q1023
Zeitraffer gestern
2018-12-11 00:13:54
LSZR 102250Z AUTO 31013KT 280V350 4300 RA BR FEW009 BKN015 04/02 Q1023

Ibiza

Ab EUR 279.- hin & zurück.

 

Jetzt buchen

Wien

Ab EUR 109.- pro Strecke.

 

Jetzt buchen

Mallorca

Ab EUR 349.- hin & zurück.

 

Jetzt buchen

General Aviation

Business & General Aviation LSZR.

 

More information

Fluggutscheine

Das ideale Geschenk.

 

Jetzt kaufen

Geschenk an Bord

Überraschen Sie Ihre Liebsten an Bord.

 

Jetzt bestellen

 

 Shuttlebus


Nutzen Sie unseren

Shuttlebus zwischen Altenrhein

und Dornbirn & Bregenz.

 

Mehr dazu

 

People's Online-Shop


Von der Überraschung an

Bord über Badetücher bis

zum Flugzeugmodell.

 

Mehr dazu


News


Aktuelles von People's

und dem Flughafen

St.Gallen-Altenrhein.

 

Mehr dazu

 

Ad-hoc Charter


Chartern Sie eine unserer

Embraer170 für Ihren eigenen

Anlass oder ACMI-Einsätze.


Mehr dazu

  

 

Teile dein People's-Erlebnis mit uns:

 

#peoplesairline bei Instagram